Location: *
(50.2903°S, 172.5375°W)
Time: 05:30:38
(UTC+00:00)

ATLAS 3B R/B - Pass Details

Date: 17 November 2019
Orbit: 1030 x 1165 km, 63.8° (Epoch: 03 December)

Event Time Altitude Azimuth Distance (km) Brightness Sun altitude
Exits shadow 14:41:18 - 288° (WNW) 3,510 4.8 -7.2°
Reaches altitude 10° 14:42:38 10° 284° (WNW) 3,074 4.6 -7.0°
Maximum altitude 14:49:42 46° 211° (SSW) 1,536 3.6 -6.2°
Drops below altitude 10° 14:56:51 10° 139° (SE) 3,104 6.9 -5.3°
Sets 14:59:45 0° 132° (SE) 4,060 8.6 -4.9°
